User: anonymous   Login
Location: Unspecified
(0.0000°N, 0.0000°E)
Time: 10:41:59
(UTC+00:00)
Language:

Asterix - Orbit

View from above orbital plane
View from above orbital plane
View from above satellite
View from above satellite

Ground track
Ground track

The orbit data is extracted from the following two-line orbital elements,

1  1778U 65096A   21017.16201236  .00000122  00000-0  31963-4 0  9992
2  1778  34.2615  56.0339 0751740 305.8687  47.4388 13.46978639697454
Epoch (UTC): 17 January 2021 03:53:17
Eccentricity: 0.0751740
inclination: 34.2615°
perigee height: 522 km
apogee height: 1644 km
right ascension of ascending node: 56.0339°
argument of perigee: 305.8687°
revolutions per day: 13.46978639
mean anomaly at epoch: 47.4388°
orbit number at epoch: 69745

The dashed part of the orbit path shows where the satellite is in the earth's shadow,  

DLR